Location: Unspecified
(40.8819°N, 0.0000°E)
Time: 17:16:34
(UTC+00:00)

SEEDS - Pass Details

Date: 03 May 2024
Orbit: 551 x 561 km, 97.7° (Epoch: 26 May)

Event Time Altitude Azimuth Distance (km) Brightness Sun altitude
Rises 03:55:41 0° 12° (NNE) 2,736 ? -10.9°
Reaches altitude 10° 03:57:49 10° 13° (NNE) 1,837 ? -10.5°
Maximum altitude 04:01:48 87° 100° (E) 558 ? -9.9°
Drops below altitude 10° 04:05:45 10° 193° (SSW) 1,824 ? -9.3°
Enters shadow 04:07:23 - 193° (SSW) 2,512 ? -9.0°
